Location: Antioch Baptist Church
(32.6696°N, 85.7327°W)
Time: 11:49:36
(UTC+00:00)

Meteor 1-27 - Pass Details

Date: 14 July 2020
Orbit: 838 x 892 km, 81.3° (Epoch: 08 August)

Event Time Altitude Azimuth Distance (km) Brightness Sun altitude
Rises 02:14:49 0° 357° (N) 3,477 8.1 -15.5°
Reaches altitude 10° 02:17:19 10° 2° (N) 2,542 7.2 -15.9°
Maximum altitude 02:23:01 56° 80° (E) 1,043 4.4 -16.8°
Enters shadow 02:26:10 26° 148° (SSE) 1,661 5.2 -17.3°
